Simultaneous Nadir Overpasses (SNOs) Predictions

Prediction of SNOs over PacNW region [( 10.00, 139.50) to ( 22.70, 165.60)] between AQUA and NPP Satellites:

Table of predicted SNOs over PacNW region for the next 30.0 days since TLE Epoch: 9/17/2016
Index Date (AQUA) Time (AQUA) AQUA Lat,Lon Date (NPP) Time (NPP) NPP Lat,Lon Distance(km) Time Diff (sec)
1 09/18/2016 15:58:51 22.60, 147.49 09/18/2016 16:02:08 23.22, 144.66 297.84 197
2 09/21/2016 02:41:47 22.67, 159.90 09/21/2016 02:38:18 27.43, 157.31 590.50 209
3 09/26/2016 15:09:20 22.61, 159.86 09/26/2016 15:11:32 23.16, 157.29 270.15 132
4 09/29/2016 03:31:09 22.69, 147.54 09/29/2016 03:27:44 22.36, 145.90 173.16 205
5 10/04/2016 15:58:42 22.59, 147.51 10/04/2016 16:02:10 24.05, 144.80 321.79 208
6 10/07/2016 02:41:37 22.68, 159.93 10/07/2016 02:38:07 25.86, 157.66 421.76 210
7 10/12/2016
